Weather History for Guthrie, OK

Change the Weather History Date:

Thursday, April 17, 2014

  Actual Average Record
Temperature  
Mean Temperature 52 °F -  
Max Temperature 57 °F 76 °F 100 °F (2006)
Min Temperature 48 °F 51 °F 30 °F (1999)
Degree Days  
Heating Degree Days 12    
Growing Degree Days 2 (Base 50)    
Moisture  
Dew Point 38 °F    
Average Humidity 58    
Maximum Humidity 74    
Minimum Humidity 49    
Precipitation  
Precipitation 0.01 in - - ()
Sea Level Pressure  
Sea Level Pressure 30.18 in    
Wind  
Wind Speed 6 mph (NE)    
Max Wind Speed 9 mph    
Max Gust Speed -    
Visibility 9 miles    
Events Rain    
Averages and records for this station are not official NWS values.
T = Trace of Precipitation, MM = Missing Value Source: NWS Daily Summary

Daily Weather History Graph

Daily Weather History Graph

Search for Another Location

Airport:

Trip Planner

Search our weather history database for the weather conditions in past years. The results will help you decide how hot, cold, wet, or windy it might be!

Date:

Astronomy

Apr. 17, 2014 Rise Set
Actual Time 6:54 AM CDT 8:04 PM CDT
Civil Twilight 6:27 AM CDT 8:31 PM CDT
Nautical Twilight 5:56 AM CDT 9:02 PM CDT
Astronomical Twilight 5:23 AM CDT 9:35 PM CDT
Moon 10:47 PM CDT (4/17) 8:30 AM CDT (4/17)
Length of Visible Light 14h 03m
Length of Day
13h 10m
Waning Gibbous, 93% of the Moon is Illuminated
Apr 17
Waning Gibbous
Apr 22
Last Quarter
Apr 29
New
May 6
First Quarter
May 14
Full

Hourly Weather History & Observations

Time (CDT) Temp. Dew Point Humidity Pressure Visibility Wind Dir Wind Speed Gust Speed Precip Events Conditions
12:53 AM 54.0 °F 35.1 °F 49% 30.03 in 10.0 mi South 8.1 mph - N/A   Clear
1:53 AM 53.1 °F 35.1 °F 50% 30.04 in 10.0 mi SSE 6.9 mph - N/A   Clear
2:53 AM 51.1 °F 35.1 °F 54% 30.04 in 10.0 mi SSE 6.9 mph - N/A   Clear
3:53 AM 51.1 °F 36.0 °F 56% 30.09 in 10.0 mi North 4.6 mph - N/A   Clear
4:53 AM 50.0 °F 37.0 °F 61% 30.10 in 10.0 mi ENE 5.8 mph - N/A   Clear
5:53 AM 50.0 °F 36.0 °F 59% 30.11 in 10.0 mi East 6.9 mph - N/A   Clear
6:53 AM 50.0 °F 36.0 °F 59% 30.14 in 10.0 mi East 8.1 mph - N/A   Mostly Cloudy
7:53 AM 51.1 °F 35.1 °F 54% 30.16 in 10.0 mi ESE 8.1 mph - N/A   Overcast
8:53 AM 52.0 °F 36.0 °F 54% 30.18 in 10.0 mi ESE 5.8 mph - N/A   Overcast
9:53 AM 53.1 °F 37.0 °F 55% 30.20 in 10.0 mi North 3.5 mph - N/A   Overcast
12:53 PM 55.0 °F 37.9 °F 53% 30.22 in 9.0 mi NNE 8.1 mph - N/A   Overcast
1:53 PM 57.0 °F 37.9 °F 49% 30.23 in 8.0 mi NE 6.9 mph - N/A   Mostly Cloudy
2:53 PM 57.0 °F 37.9 °F 49% 30.23 in 8.0 mi North 8.1 mph - N/A   Partly Cloudy
3:53 PM 57.0 °F 37.9 °F 49% 30.23 in 8.0 mi NNE 6.9 mph - N/A   Mostly Cloudy
4:53 PM 55.9 °F 37.0 °F 49% 30.23 in 10.0 mi NNE 9.2 mph - N/A   Overcast
5:53 PM 57.0 °F 37.9 °F 49% 30.22 in 9.0 mi NNE 6.9 mph - N/A   Overcast
6:53 PM 54.0 °F 41.0 °F 62% 30.23 in 5.0 mi NNE 5.8 mph - 0.00 in Rain Light Rain
7:53 PM 52.0 °F 42.1 °F 69% 30.22 in 7.0 mi NE 3.5 mph - 0.01 in   Mostly Cloudy
8:53 PM 50.0 °F 42.1 °F 74% 30.24 in 8.0 mi NNE 3.5 mph - N/A   Mostly Cloudy
9:53 PM 50.0 °F 42.1 °F 74% 30.25 in 7.0 mi Calm Calm - N/A   Overcast
10:53 PM 48.9 °F 39.9 °F 71% 30.26 in 7.0 mi NNE 3.5 mph - N/A   Overcast
11:53 PM 48.0 °F 39.0 °F 71% 30.27 in 6.0 mi North 3.5 mph - N/A   Haze